Wind_Speed
54 54 55 55 55 54 53 53 54 54 56 59 62 66 73 81 85 87 87 87 86 86 86 86 85 84 84 83 82 81 82 81 81 79 78 78 79 79 79 77 78 79 78
48 47 46 49 50 52 52 51 50 50 51 54 56 59 62 67 71 79 84 88 86 86 86 87 86 85 84 84 84 83 83 81 80 79 79 79 79 78 79 79 78 77 76
44 44 43 45 46 47 47 49 47 47 49 50 51 53 57 59 63 65 71 76 80 82 84 83 83 83 84 86 83 82 82 81 80 79 78 77 76 74 75 75 76 75 74
42 39 39 42 42 42 43 45 46 43 41 42 45 48 53 55 54 54 57 62 67 73 74 73 73 75 79 77 77 79 78 77 76 74 71 69 70 71 71 70 68 67 65
43 43 41 41 44 42 42 41 41 41 38 39 42 46 48 50 48 48 51 51 54 57 63 65 64 61 62 66 68 70 66 64 66 64 60 61 61 62 61 59 59 58 58
49 48 44 45 44 43 40 40 39 40 39 38 41 43 43 39 37 41 41 44 44 45 48 48 49 50 53 56 57 57 58 55 53 49 49 51 51 51 51 49 49 48 46
49 49 44 45 46 43 41 39 37 37 34 35 37 37 35 28 20 30 37 34 34 36 38 41 45 47 46 46 46 44 40 41 39 31 32 37 38 40 41 41 37 35 36
48 49 47 45 44 44 44 41 37 35 30 35 34 34 34 29 35 33 34 25 27 24 23 26 25 30 36 35 35 35 29 25 26 29 33 36 34 33 31 27 28 32 33
50 47 45 45 44 44 41 39 35 34 32 30 31 34 33 29 38 43 37 35 34 26 21 16 14 13 17 19 20 22 23 26 29 34 34 33 29 27 27 27 31 33 33
49 45 43 44 45 42 40 39 36 35 34 34 30 29 31 29 33 43 42 46 40 28 27 19 19 17 15 16 19 20 24 29 34 30 30 27 28 29 29 28 29 30 31
51 42 40 43 43 40 39 38 36 35 33 36 28 31 34 33 32 39 46 42 39 32 30 21 19 19 12 13 17 23 26 24 25 25 27 27 22 23 24 29 31 26 26
51 43 39 42 44 39 39 36 36 34 33 31 30 37 36 34 34 42 44 46 40 36 32 22 14 14 12 11 11 12 11 17 22 25 30 30 28 25 23 24 25 25 17
52 40 39 40 43 38 38 36 36 33 35 30 26 31 32 29 30 43 48 49 47 37 30 18 19 22 18 16 12 11 13 13 17 21 24 28 27 24 26 25 28 22 21
55 38 36 38 40 36 36 36 37 33 34 28 25 27 30 24 28 50 52 52 45 40 34 20 27 24 22 19 21 16 15 13 14 18 18 21 22 23 26 29 27 23 18
53 42 35 36 36 32 33 35 35 33 30 26 24 24 25 19 23 39 48 43 44 35 27 27 22 21 20 24 23 19 20 14 12 15 18 22 26 26 27 23 23 22 20
53 44 36 36 34 28 31 33 33 32 28 23 22 25 24 18 19 38 38 45 42 31 34 32 28 26 25 25 23 21 23 18 14 19 23 30 27 23 28 26 24 24 21
52 46 35 35 31 26 28 31 32 33 27 22 22 27 27 25 25 40 34 40 46 42 47 42 38 35 35 32 28 27 30 29 26 22 25 32 33 29 27 33 32 26 23
51 44 33 34 29 25 28 30 29 29 29 22 21 29 32 30 32 38 36 37 37 42 45 45 43 40 38 35 29 30 33 35 37 35 29 26 33 35 33 40 36 31 29
47 39 32 33 28 23 25 28 27 29 31 21 21 27 37 35 36 37 45 40 43 44 46 45 49 47 46 42 39 36 33 33 33 26 25 28 31 36 39 44 44 41 36
46 35 31 33 26 23 25 26 26 29 29 20 21 28 42 43 44 41 46 48 53 52 48 45 46 46 44 44 34 35 34 33 29 27 27 29 33 40 40 48 48 44 43
46 35 32 31 25 22 24 22 22 25 29 17 17 30 45 49 46 49 52 53 55 53 52 52 45 44 34 33 29 25 26 29 32 29 27 31 30 41 45 50 52 52 50
44 35 34 30 25 21 25 20 20 23 25 20 15 24 39 54 52 52 53 56 60 62 63 56 54 46 40 37 34 37 38 41 41 44 40 41 42 45 44 43 54 57 56
39 35 35 31 25 22 22 17 17 22 21 23 17 9 30 56 59 55 56 57 59 63 60 62 60 63 62 57 55 51 54 53 58 53 53 48 41 46 47 47 50 57 59
38 37 36 32 25 25 20 15 15 18 21 21 21 13 9 31 60 64 61 59 62 60 62 62 65 61 61 59 61 61 58 57 52 52 46 46 43 48 51 49 49 54 57
34 39 37 33 28 26 19 17 14 16 18 19 21 20 13 7 30 61 67 67 63 62 66 61 61 61 65 61 57 57 65 57 54 58 48 47 43 49 48 49 48 51 52
41 40 39 36 29 27 22 18 14 14 16 16 16 17 17 12 5 22 58 66 68 68 67 65 64 60 56 57 61 58 58 61 60 58 55 47 50 53 53 53 54 55 56
Wind_Direction
289 288 289 286 284 283 280 275 273 270 266 263 260 258 255 254 253 253 253 251 251 252 253 253 255 256 258 259 260 261 264 265 266 268 269 270 270 272 274 276 276 277 277
293 293 290 288 284 281 279 277 275 270 268 266 263 261 259 256 255 255 255 253 252 252 251 253 254 256 257 258 260 261 263 263 265 267 269 269 271 272 273 276 278 279 279
298 299 298 294 283 281 278 278 276 273 271 269 268 264 259 258 257 256 256 257 256 255 254 254 255 256 258 259 260 261 261 263 265 268 269 270 272 273 275 276 276 277 279
298 299 299 292 284 280 277 277 276 274 274 272 272 269 266 262 259 257 257 257 257 256 255 255 256 256 257 257 258 259 260 261 262 264 267 268 269 271 274 274 275 277 279
305 303 301 296 292 286 278 278 277 275 273 271 270 268 270 270 268 264 259 257 257 255 253 254 253 253 253 255 255 257 259 259 262 264 266 268 270 271 272 273 274 276 277
304 306 302 296 297 292 283 281 280 278 276 271 270 269 270 281 283 272 264 259 259 258 256 250 249 250 253 253 254 255 259 261 263 266 268 271 273 272 270 274 273 270 268
299 300 300 296 297 292 288 284 282 281 285 285 281 273 270 253 238 288 259 248 250 250 258 254 246 244 248 250 252 255 260 262 266 264 266 268 268 268 269 271 269 265 262
304 297 293 294 294 293 292 291 287 284 292 293 278 269 272 249 224 244 237 213 218 225 221 236 239 244 246 249 253 256 254 252 255 260 267 269 273 272 270 261 260 263 264
310 297 287 289 289 289 291 292 292 293 294 293 282 278 267 244 226 220 221 198 194 199 218 213 240 244 239 240 237 240 242 253 260 265 270 270 264 259 259 256 265 264 268
313 296 282 283 287 288 291 294 296 299 303 294 293 272 267 258 235 228 212 200 192 190 211 203 219 228 232 228 241 243 255 257 264 268 260 265 256 260 257 258 259 271 273
309 295 281 282 284 285 291 293 299 303 301 293 272 266 264 260 238 228 211 197 191 192 206 202 223 231 232 238 242 250 262 265 264 261 259 258 246 257 267 266 267 273 277
309 294 276 282 284 283 289 295 301 305 301 297 271 268 270 261 240 225 217 196 199 200 207 201 218 208 204 228 226 267 273 260 253 257 253 247 242 250 263 264 268 271 256
308 297 277 279 282 281 289 296 304 304 305 298 275 273 270 252 233 222 213 197 203 201 205 184 201 201 220 240 242 276 275 284 277 273 263 253 244 247 260 263 268 242 184
307 302 278 277 277 280 290 298 303 306 308 294 275 266 263 252 234 217 212 202 204 210 212 208 215 211 216 228 241 276 279 290 284 276 260 251 249 254 266 260 241 194 199
298 302 279 275 272 277 288 299 304 312 304 288 271 257 249 248 226 213 210 219 208 213 214 200 222 223 244 248 250 251 280 275 285 284 264 243 247 256 253 231 208 199 213
295 297 283 271 267 274 289 299 308 314 307 290 262 246 236 214 220 201 209 209 209 204 198 215 225 236 241 257 269 259 254 259 301 296 279 250 252 258 258 213 207 216 228
291 289 280 268 265 274 291 299 308 319 309 288 255 232 224 218 214 202 210 216 214 215 217 227 235 248 256 262 266 260 259 261 278 287 288 260 256 256 237 221 222 230 240
287 283 273 264 263 277 292 297 308 319 322 288 262 224 211 219 208 209 199 208 219 216 213 233 241 254 256 259 264 254 257 263 269 275 283 279 260 252 248 222 227 238 247
278 273 264 258 259 275 286 294 307 326 326 295 267 227 208 215 204 208 205 204 213 222 228 233 238 247 251 258 265 259 256 254 267 269 286 288 270 257 252 235 230 237 246
266 258 253 251 254 270 281 292 312 326 329 314 267 233 206 212 208 206 210 205 210 219 222 230 237 248 247 259 254 250 251 251 254 263 273 291 296 265 256 231 233 245 248
257 247 242 243 248 262 276 292 310 327 331 329 282 229 209 206 212 215 210 211 213 216 220 232 235 235 239 241 240 245 252 253 258 270 265 282 281 285 250 242 237 245 251
247 238 234 236 241 257 270 288 305 324 331 347 327 232 215 208 208 216 220 218 220 222 227 234 231 236 236 241 250 255 263 268 265 274 273 282 283 285 258 253 244 246 250
232 229 227 230 236 251 266 283 302 315 339 1 355 287 221 212 211 212 217 221 224 228 230 232 236 240 241 245 255 261 268 268 273 270 277 282 274 268 258 257 251 250 253
219 224 224 225 231 246 258 270 295 311 331 348 1 5 276 225 216 216 217 219 224 230 232 234 233 237 241 252 259 262 265 267 264 265 265 274 262 263 256 261 259 258 258
213 220 222 222 225 241 249 262 284 307 326 339 351 359 2 267 229 222 221 222 221 225 229 239 240 243 248 249 248 252 261 262 264 256 260 261 258 262 263 263 262 262 264
206 218 221 221 222 234 242 256 272 301 318 332 346 352 356 346 306 231 229 228 227 230 233 237 238 240 242 246 249 253 254 256 254 258 253 256 258 257 260 261 263 265 264
Height
10777 10775 10774 10773 10771 10771 10771 10772 10773 10774 10775 10776 10778 10780 10782 10781 10781 10780 10782 10787 10791 10796 10798 10799 10802 10805 10807 10809 10811 10813 10812 10814 10815 10815 10814 10814 10814 10816 10816 10817 10817 10818 10818
10770 10768 10766 10763 10762 10760 10760 10761 10762 10762 10762 10762 10764 10765 10766 10766 10766 10767 10768 10771 10776 10781 10786 10788 10791 10792 10795 10797 10798 10801 10801 10802 10803 10803 10804 10804 10805 10807 10806 10806 10807 10806 10807
10762 10760 10758 10755 10753 10751 10749 10749 10750 10751 10751 10752 10751 10752 10752 10753 10754 10756 10758 10758 10762 10768 10773 10775 10778 10781 10783 10785 10787 10788 10789 10791 10791 10792 10794 10794 10794 10796 10796 10796 10797 10797 10796
10756 10754 10752 10749 10746 10744 10743 10741 10740 10740 10741 10741 10741 10740 10740 10741 10744 10747 10748 10748 10751 10754 10758 10762 10766 10768 10770 10771 10774 10776 10778 10780 10780 10782 10784 10784 10784 10786 10787 10787 10787 10786 10787
10747 10746 10745 10743 10740 10739 10736 10734 10732 10731 10733 10733 10732 10730 10729 10731 10735 10738 10740 10741 10742 10744 10748 10752 10754 10755 10756 10759 10762 10765 10768 10770 10772 10774 10775 10776 10776 10778 10777 10778 10777 10779 10780
10741 10739 10737 10734 10733 10731 10729 10727 10725 10722 10721 10723 10722 10722 10722 10726 10726 10728 10731 10733 10735 10735 10737 10741 10743 10743 10744 10748 10752 10755 10760 10762 10763 10765 10767 10767 10768 10768 10767 10768 10768 10768 10769
10734 10732 10729 10727 10725 10723 10722 10721 10718 10715 10713 10711 10711 10712 10712 10720 10718 10720 10719 10722 10727 10728 10728 10730 10733 10733 10735 10740 10744 10748 10752 10754 10756 10757 10759 10759 10759 10758 10758 10759 10759 10760 10761
10727 10723 10721 10719 10717 10715 10713 10712 10709 10708 10707 10701 10700 10702 10701 10706 10706 10712 10710 10711 10717 10722 10722 10722 10724 10727 10731 10733 10738 10742 10745 10746 10748 10750 10751 10751 10751 10751 10752 10753 10753 10754 10755
10720 10716 10712 10710 10708 10707 10705 10703 10701 10700 10698 10694 10691 10689 10691 10696 10697 10695 10702 10704 10704 10710 10716 10716 10721 10722 10725 10729 10732 10735 10737 10740 10741 10743 10743 10744 10744 10745 10747 10747 10747 10748 10749
10712 10709 10705 10704 10701 10698 10697 10695 10692 10691 10689 10685 10684 10683 10682 10686 10688 10690 10692 10694 10699 10702 10707 10709 10714 10719 10722 10725 10729 10730 10732 10733 10734 10736 10736 10738 10739 10740 10741 10742 10743 10744 10745
10703 10699 10698 10696 10694 10691 10690 10687 10684 10683 10681 10676 10676 10674 10677 10679 10681 10682 10686 10693 10694 10696 10700 10702 10709 10714 10718 10721 10723 10725 10726 10727 10728 10729 10731 10732 10734 10735 10736 10737 10739 10739 10739
10694 10689 10689 10688 10687 10685 10682 10680 10677 10675 10673 10669 10668 10666 10668 10671 10671 10675 10681 10686 10689 10693 10695 10697 10705 10711 10715 10717 10718 10720 10721 10722 10723 10724 10724 10726 10727 10730 10731 10733 10734 10735 10735
10683 10681 10679 10680 10680 10679 10676 10672 10670 10668 10665 10662 10661 10658 10658 10661 10664 10667 10674 10680 10684 10687 10689 10692 10700 10705 10710 10712 10713 10716 10717 10717 10718 10719 10720 10721 10723 10725 10727 10729 10729 10729 10732
10671 10673 10672 10671 10673 10671 10669 10665 10663 10660 10656 10654 10653 10652 10651 10653 10654 10658 10667 10676 10680 10681 10686 10690 10696 10700 10703 10707 10710 10712 10713 10714 10715 10716 10717 10718 10719 10722 10723 10724 10725 10727 10730
10661 10664 10664 10664 10665 10666 10663 10659 10656 10652 10649 10647 10645 10645 10644 10647 10649 10654 10662 10670 10674 10681 10682 10686 10690 10694 10698 10703 10707 10708 10710 10711 10711 10713 10714 10715 10716 10717 10719 10720 10722 10725 10728
10653 10656 10657 10657 10658 10659 10656 10653 10648 10644 10641 10639 10638 10638 10638 10642 10645 10650 10657 10664 10669 10677 10678 10680 10684 10689 10693 10697 10701 10704 10706 10707 10707 10709 10710 10711 10713 10713 10715 10717 10719 10721 10724
10643 10647 10649 10650 10651 10652 10650 10646 10642 10637 10634 10632 10631 10632 10632 10637 10642 10648 10654 10658 10664 10673 10676 10675 10678 10684 10686 10691 10696 10700 10701 10702 10704 10705 10707 10708 10707 10709 10711 10713 10715 10716 10718
10633 10637 10640 10643 10645 10644 10644 10641 10637 10632 10628 10625 10624 10626 10628 10631 10637 10642 10648 10654 10658 10666 10669 10672 10675 10678 10680 10685 10689 10693 10696 10697 10698 10702 10701 10702 10703 10705 10706 10708 10710 10712 10713
10623 10627 10631 10636 10638 10638 10637 10635 10631 10626 10621 10618 10616 10618 10623 10625 10632 10637 10643 10648 10654 10658 10663 10667 10669 10672 10674 10678 10685 10688 10690 10691 10693 10694 10695 10696 10697 10699 10700 10702 10702 10704 10706
10614 10617 10623 10628 10631 10632 10631 10630 10625 10621 10617 10612 10609 10611 10615 10618 10625 10631 10636 10641 10647 10652 10658 10660 10664 10668 10669 10673 10678 10681 10683 10685 10686 10688 10689 10689 10691 10692 10694 10694 10696 10698 10698
10604 10608 10614 10619 10623 10625 10626 10624 10620 10617 10613 10607 10601 10602 10607 10611 10616 10623 10629 10635 10638 10643 10650 10654 10659 10661 10662 10665 10669 10672 10676 10678 10679 10680 10682 10683 10685 10685 10684 10687 10689 10689 10690
10594 10600 10606 10611 10616 10617 10619 10618 10615 10613 10610 10601 10596 10594 10599 10604 10609 10614 10621 10626 10630 10636 10642 10646 10651 10654 10654 10657 10659 10663 10668 10670 10672 10672 10673 10675 10676 10675 10677 10679 10680 10680 10681
10584 10590 10598 10604 10608 10610 10613 10611 10610 10608 10604 10598 10593 10590 10591 10597 10602 10606 10611 10616 10621 10627 10633 10638 10644 10646 10646 10649 10651 10656 10658 10660 10661 10663 10663 10666 10667 10667 10669 10670 10671 10672 10673
10573 10582 10590 10595 10600 10603 10606 10605 10605 10603 10600 10595 10591 10588 10585 10587 10592 10597 10601 10607 10613 10617 10620 10626 10634 10637 10640 10641 10644 10647 10649 10649 10650 10651 10653 10655 10657 10658 10659 10661 10661 10663 10664
10567 10575 10582 10587 10592 10596 10599 10599 10600 10598 10595 10593 10589 10584 10582 10581 10582 10586 10591 10596 10602 10605 10610 10615 10622 10627 10630 10632 10633 10636 10637 10638 10639 10640 10645 10646 10648 10648 10649 10651 10652 10652 10653
10557 10566 10573 10579 10584 10589 10591 10593 10593 10593 10591 10589 10586 10583 10579 10577 10576 10577 10581 10585 10591 10595 10599 10604 10610 10616 10618 10621 10624 10625 10626 10627 10626 10630 10633 10636 10637 10637 10639 10640 10641 10641 10642